Regional Weather Roundup
Issued by NWS

Home | Current Version | Previous Version | Graphics & Text | Print | Product List | Glossary On
Versions: 1 2 3 4 5 6 7 8 9 10 11 12 13 14 15 16 17 18 19 20 21 22 23 24 25 26 27 28 29 30 31 32 33 34 35 36 37 38 39 40 41 42 43 44 45 46 47 48 49 50
000
ASUS43 KLOT 011009
RWRIL

ILLINOIS REGIONAL WEATHER ROUNDUP
NATIONAL WEATHER SERVICE CHICAGO/ROMEOVILLE IL
500 AM CDT SAT OCT 01 2016

NOTE: "FAIR" INDICATES FEW OR NO CLOUDS BELOW 12,000 FEET WITH NO
SIGNIFICANT WEATHER AND/OR OBSTRUCTIONS TO VISIBILITY.

* THESE STATIONS ARE NOT UNDER NWS QUALITY CONTROL. THEY ALSO MAY NOT
  REPORT WEATHER SUCH AS PRECIPITATION OR FOG.

ILZ001-002-007-009-015-016-024-011100-
NORTHWEST ILLINOIS

CITY           SKY/WX    TMP DP  RH WIND       PRES   REMARKS
MOLINE         CLOUDY    61  58  90 N7        30.05S
STERLING*      CLOUDY    60  59  96 NE5       30.04S
SAVANNA*       DRIZZLE   59  58  97 N3        30.05S
$$

ILZ003-004-008-010-011-017-018-011100-
NORTH CENTRAL ILLINOIS

CITY           SKY/WX    TMP DP  RH WIND       PRES   REMARKS
ROCKFORD       CLOUDY    61  59  93 NE5       30.06F FOG
FREEPORT*      CLOUDY    58  57  97 N3        30.07S
ROCHELLE*      CLOUDY    59  59  99 NE6       30.04F FOG
DE KALB*       MOCLDY    58  57  97 NE5       30.04F FOG
$$

ILZ005-006-012>014-019>023-011100-
NORTHEAST ILLINOIS

CITY           SKY/WX    TMP DP  RH WIND       PRES   REMARKS
CHICAGO-OHARE  CLOUDY    59  56  89 N6        30.02F
CHICAGO-MIDWAY CLOUDY    61  57  87 N5        30.02F
AURORA         CLEAR     57  56  96 N5        30.03F
LANSING*       CLOUDY    56  56 100 NW5       30.01F FOG
JOLIET*        CLEAR     57  56  97 CALM      30.02F
WAUKEGAN       CLOUDY    57  56  96 NW3       30.03F
DUPAGE AIRPORT CLEAR     56  54  93 N3        30.02F
KANKAKEE*      CLOUDY    58  57  97 CALM      30.02S
WHEELING       CLOUDY    59  57  93 N3        30.04F
MORRIS*        CLEAR     57  56  95 CALM      30.02R
ROMEOVILLE*    PTCLDY    57  57 100 CALM      30.02F
NORTHERLY ISL    N/A     60  56  86 MISG        N/A
$$

LMZ740>746-011100-
SOUTHERN LAKE MICHIGAN

STATION/POSITION SKY/WX   TEMP    WIND        PRES    VSBY  WAVE
                          AIR SEA DIR/SP/G                  HT/PER
                          (F)     (DEG/KT/KT) (MB)    (MI)  (FT/S)
SOUTHERN BUOY              63 67   70/ 14/ 16 1016.8R         3/ 6
WILMETTE HARBOR            60 59   30/  2/  4   N/A           3/ 6
HARRISON CRIB              63      20/  4/  4   N/A
BURNHAM HARBOR             60     360/  2/  7   N/A
CALUMET HARBOR             61      20/  4/  5 1016.1F
BURNS HARBOR               62      40/  9/ 10 1016.6F
MICHIGAN CITY              61      10/ 14/ 16   N/A
MICHIGAN CITY 6N           62 64   40/ 12/ 17   N/A           3/ 6
ST. JOSEPH                 54 51   20/  8/ 10 1016.6          3/ 6
$$

ILZ025>027-034>036-040-047-049-050-058-095>099-011100-
WEST-CENTRAL ILLINOIS

CITY           SKY/WX    TMP DP  RH WIND       PRES   REMARKS
QUINCY         CLOUDY    61  59  93 NW8       30.04F
GALESBURG*     CLOUDY    59  58  97 N7        30.04S
MACOMB*        CLOUDY    60  59  95 N8        30.06S
JACKSONVILLE*  CLOUDY    61  60  95 NW6       30.02S
PITTSFIELD*    CLOUDY    61  60  95 NW3       30.05R
$$

ILZ028>032-037-038-041>044-048-051>054-059>061-011100-
CENTRAL ILLINOIS

CITY           SKY/WX    TMP DP  RH WIND       PRES   REMARKS
PONTIAC        CLEAR     58  58 100 NE6       30.02S FOG
BLOOMINGTON    CLOUDY    59  58  96 N7        30.01F FOG
DECATUR        CLOUDY    61  59  93 NE6       29.99F
PEORIA         CLOUDY    61  61 100 N3        30.01F
LACON*         CLOUDY    60  59  96 CALM      30.01F
LINCOLN*       LGT RAIN  61  61 100 N5        30.00F
SPRINGFIELD    CLOUDY    62  60  93 N5        30.00F FOG
TAYLORVILLE    CLOUDY    60  59  98 N5        30.00S FOG
$$

ILZ033-039-045-046-055>057-062-063-011100-
EAST-CENTRAL ILLINOIS

CITY           SKY/WX    TMP DP  RH WIND       PRES   REMARKS
CHAMPAIGN      CLOUDY    60  58  92 N5        29.99S
RANTOUL*       CLOUDY    61  60  96 N6        29.99S FOG
MATTOON        CLOUDY    60  58  92 N3        29.97F
PARIS*         CLOUDY    56  56 100 CALM      29.99F FOG
$$

ILZ079-100>102-011100-
SOUTHWEST ILLINOIS

CITY           SKY/WX    TMP DP  RH WIND       PRES   REMARKS
ALTON          CLOUDY    60  60  97 NW5       30.01S FOG
BELLEVILLE     DRIZZLE   62  62 100 NW7       30.00S
CAHOKIA*       CLOUDY    63  59  87 W6        30.02S
SPARTA*        CLOUDY    60  60  97 W3        30.02S
$$

ILZ064>066-069>071-074>076-080>082-084>086-088>090-092>094-011100-
SOUTH-CENTRAL ILLINOIS

CITY           SKY/WX    TMP DP  RH WIND       PRES   REMARKS
CARBONDALE     CLOUDY    61  61 100 W5        30.01S
CAIRO*         CLOUDY    61  60  96 NW5       30.02S
EFFINGHAM*     CLOUDY    60  60 100 CALM      30.00S FOG
MARION         CLOUDY    63  63 100 NW3       30.02R
MT. VERNON     CLOUDY    63  55  77 CALM      29.99F
CENTRALIA*     RAIN      62  62 100 CALM      29.98S
SALEM*         RAIN      62  60  94 CALM      29.98S
METROPOLIS*    CLOUDY    62  60  95 CALM      30.02R
$$

ILZ067-068-072-073-078-083-087-091-011100-
SOUTHEAST ILLINOIS

CITY           SKY/WX    TMP DP  RH WIND       PRES   REMARKS
LAWRENCEVILLE  CLOUDY    56  54  93 E3        29.99S
FLORA*         MOCLDY    61  60  97 CALM      29.99S FOG
FAIRFIELD*       N/A     61  61 100 CALM      29.97S
HARRISBURG*    RAIN      61  61 100 W3        29.99S
ROBINSON*      FOG       55  55 100 CALM      30.00S VSB 3/4
CARMI*         FOG       58  58 100 CALM      29.98S VSB 3/4
$$

ABBREVIATIONS USED IN REMARKS
   TC - TEMPERATURE IN CELSIUS
  WCI - WIND CHILL INDEX
   HX - HEAT INDEX
  VSB - VISIBILITY
$$





USA.gov is the U.S. government's official web portal to all federal, state and local government web resources and services.